Location: York
(31.8935°S, 116.7682°E)
Time: 13:08:08
(UTC+08:00)

A-11 Canister half - Visible Passes

Search period start: 09 December 2023 00:00
Search period end: 19 December 2023 00:00
Orbit: 1525 x 1683 km, 47.3° (Epoch: 08 December)

Date Brightness Start Highest point End Pass type
(mag) Time Alt. Az. Time Alt. Az. Time Alt. Az.
09 Dec 10.1 03:51:38 10° N 03:59:40 33° NE 04:07:38 10° ESE visible
10 Dec 10.2 03:30:08 10° N 03:37:59 31° NE 03:45:45 10° ESE visible
11 Dec 10.2 03:09:25 12° N 03:16:19 29° NE 03:23:53 10° ESE visible
12 Dec 10.2 02:49:04 15° N 02:54:38 27° NE 03:01:59 10° ESE visible
13 Dec 10.3 02:28:41 18° NNE 02:32:58 25° NE 02:40:04 10° ESE visible
13 Dec 9.1 04:27:41 10° NW 04:37:08 88° SW 04:46:32 10° SE visible
14 Dec 10.3 02:08:14 20° NNE 02:11:17 23° NE 02:18:07 10° ESE visible
14 Dec 9.0 04:06:32 12° NW 04:15:24 88° NE 04:24:48 10° SE visible
15 Dec 10.3 01:47:44 20° NE 01:49:37 21° NE 01:56:09 10° E visible
15 Dec 9.0 03:46:02 18° NW 03:53:41 84° NE 04:03:03 10° SE visible
16 Dec 10.3 01:27:11 20° NE 01:27:57 20° NE 01:34:10 10° E visible
16 Dec 9.0 03:25:28 23° NW 03:31:57 80° NE 03:41:19 10° SE visible
17 Dec 10.4 01:06:35 18° ENE 01:06:35 18° ENE 01:12:08 10° E visible
17 Dec 9.0 03:04:52 30° NW 03:10:14 77° NE 03:19:35 10° SE visible
18 Dec 10.5 00:45:56 16° ENE 00:45:56 16° ENE 00:50:02 10° E visible
18 Dec 9.0 02:44:12 37° NNW 02:48:32 73° NE 02:57:50 10° SE visible
